sat.trackr.live / text

‹ back to catalog

STARLINK-1373

NORAD 45544 · 2020-025P

PAYLOAD ACTIVE UNKNOWN

§ Identity

Operator
Country
US
Launch date
2020-04-22
Launch site
AFETR
Launch vehicle
Mass (kg)
RCS (m²)

Purposes: comms

External: N2YO · Heavens-Above · Gunter

§ Orbital elements

Epoch: 2026-09-14T05:35:14.889408Z

Period
90.96 min
Inclination
53.0360°
Eccentricity
0.0005846
Mean motion
15.83119002 rev/d
Perigee alt
317.7 km
Apogee alt
325.5 km
Semi-major
6,699.8 km
B*
4.2870e-4
RAAN
238.6161°
Arg perigee
44.9611°
Mean anomaly
315.1883°
Rev number
35,493

§ Raw data

STARLINK-13731 45544U 20025P   26257.23281122  .00094363  00000+0  42870-3 0  99922 45544  53.0360 238.6161 0005846  44.9611 315.1883 15.83119002354939

JSON: /api/v1/satellites/45544 · /tle

For live sub-satellite position, see the globe view (requires WebGL).

§ Visibility from observer

Set your observer location to see the next 7 days of passes ≥ 10°. The values pass through the URL so the page stays shareable.

No JS? Fill the form by hand. The geolocation button needs JavaScript.